CAPE
0 0 0 0 0 0 0 0 0 0 0 0 0 0 0 0 0 0 0 0 0 0 0 0 0 0 0 0 0 0 0 0 0 0 0 0 0 0 0 0 0 0 0 0 0 0 0
0 0 0 0 0 0 0 0 0 0 0 0 0 0 0 0 0 0 0 0 0 0 0 0 0 0 0 0 0 0 0 0 0 0 0 0 0 0 0 0 0 0 0 0 0 0 0
0 0 0 0 0 0 0 0 0 0 0 0 0 0 0 0 0 0 0 0 0 0 0 0 0 0 0 0 0 0 0 0 0 0 0 0 0 0 0 0 0 0 0 0 0 0 0
0 0 0 0 0 0 0 0 0 0 0 0 0 0 0 0 0 0 0 0 0 0 0 0 0 0 0 0 0 0 0 0 0 0 0 0 0 0 0 0 0 0 0 0 0 0 0
0 0 0 0 0 0 0 0 0 0 0 0 0 0 0 0 0 0 0 0 0 0 0 0 0 0 0 0 0 0 0 0 0 0 0 0 0 0 0 0 0 0 0 0 0 0 0
0 0 0 0 0 0 0 0 0 0 0 0 0 0 0 0 0 0 0 0 0 0 0 0 0 0 0 0 0 0 0 0 0 0 0 0 0 0 0 0 0 0 0 0 0 0 0
3 0 0 0 0 0 0 0 0 0 0 0 0 0 0 0 0 0 0 0 0 0 0 0 0 0 0 0 0 0 0 0 0 0 0 0 0 0 0 0 0 0 0 0 0 0 0
2 2 0 0 0 0 0 0 0 0 0 0 0 0 0 0 0 0 0 0 0 0 0 0 0 0 0 0 0 0 0 0 0 0 0 0 0 0 0 0 0 0 0 0 0 0 0
0 0 0 0 0 0 0 0 0 0 0 0 0 0 0 0 0 0 0 0 0 0 0 0 0 0 0 0 0 0 0 0 0 0 0 0 0 0 0 0 0 0 0 0 0 0 0
3 2 2 1 2 3 0 0 0 0 0 0 0 0 0 0 0 0 0 0 0 0 0 0 0 0 0 0 0 0 0 0 0 0 0 0 0 0 0 0 0 0 0 0 0 0 0
6 9 4 2 3 4 1 0 0 0 0 0 0 0 0 0 0 0 0 0 0 0 0 0 0 0 0 0 0 0 0 0 0 0 0 0 0 0 0 0 0 0 0 0 0 0 0
3 15 2 2 0 0 6 1 0 0 0 0 0 0 0 0 0 0 0 0 0 0 0 0 0 0 0 0 0 0 0 0 0 0 0 0 0 0 0 0 0 0 0 0 0 0 0
0 0 4 1 2 1 1 2 1 0 0 0 0 0 0 0 0 0 0 0 0 0 0 0 0 0 0 0 0 0 0 0 0 0 0 0 0 0 0 0 0 0 0 0 0 0 0
0 0 7 1 1 3 3 0 0 1 0 0 0 0 0 0 0 0 0 0 0 0 0 0 0 0 0 0 0 0 0 0 0 0 0 0 0 0 0 0 0 0 0 0 0 0 0
1 1 3 3 1 2 3 3 0 1 0 0 0 0 0 0 0 0 0 0 0 0 0 0 0 0 0 0 0 0 0 0 0 0 0 0 0 0 0 0 0 0 0 0 0 0 0
1 2 0 1 2 1 1 2 2 0 0 0 0 0 0 0 0 0 0 0 0 0 0 0 0 0 0 0 0 0 0 0 0 0 0 0 0 0 0 0 0 0 0 0 0 0 0
0 0 3 2 1 1 1 2 1 0 0 0 0 0 0 0 0 0 0 0 0 0 0 0 0 0 0 0 0 0 0 0 0 0 0 0 0 0 0 0 0 0 0 0 0 0 0
0 0 0 1 0 0 0 0 2 0 0 0 0 0 0 0 0 0 0 0 0 0 0 0 0 0 0 0 0 0 0 0 0 0 0 0 0 0 0 0 0 0 0 0 0 0 0
0 0 0 0 0 0 0 0 1 0 0 0 0 0 0 0 0 0 0 0 0 0 0 0 0 0 0 0 0 0 0 0 0 0 0 0 0 0 0 0 0 0 0 0 0 0 0
0 0 0 1 0 0 0 0 1 0 0 0 0 0 0 0 0 0 0 0 0 0 0 0 0 0 0 0 0 0 0 0 0 0 0 0 0 0 0 0 0 0 0 0 0 0 0
0 0 0 8 0 0 0 0 0 0 0 0 0 0 0 0 0 0 0 0 0 0 0 0 0 0 0 0 0 0 0 0 0 0 0 0 0 0 0 0 0 0 0 0 0 0 0
0 0 0 10 0 0 0 0 0 0 0 0 0 0 0 0 0 0 0 0 0 0 0 0 0 0 0 0 0 0 0 0 0 0 0 0 0 0 0 0 0 0 0 0 0 0 0
0 0 0 2 0 0 0 0 0 0 0 0 0 0 0 0 0 0 0 0 0 0 0 0 0 0 0 0 0 0 0 0 0 0 0 0 0 0 0 0 0 0 0 0 0 0 0
0 0 0 0 0 0 0 0 0 0 0 0 0 0 0 0 0 0 0 0 0 0 0 0 0 0 0 0 0 0 0 0 0 0 0 0 0 0 0 0 0 0 0 0 0 0 0
6 0 0 0 0 0 0 0 4 2 0 0 0 0 0 0 0 0 0 0 0 0 0 0 0 0 0 0 0 0 0 0 0 0 0 0 0 0 0 0 0 0 0 0 0 0 0
6 6 0 0 0 0 1 0 0 0 0 0 2 0 0 0 0 0 0 0 0 0 0 0 0 0 0 0 0 0 0 0 0 0 0 0 0 0 0 0 0 0 0 0 0 0 0
11 12 6 0 2 1 6 0 0 0 0 0 0 0 0 0 0 0 0 0 0 0 0 0 0 0 0 0 0 0 0 0 0 0 0 0 0 0 0 0 0 0 0 0 0 0 0
14 17 8 2 4 5 5 0 0 0 0 0 0 0 0 0 0 0 0 0 0 0 0 0 0 0 0 0 0 0 0 0 0 0 0 0 0 0 0 0 0 0 0 0 0 0 0
17 16 9 3 8 6 10 1 0 0 0 0 1 0 0 0 0 0 0 0 0 0 0 0 0 0 0 0 0 0 0 0 0 0 0 0 0 0 0 0 0 0 0 0 0 0 0
CIN
-0 -0 -0 -0 -0 -0 -0 -0 -0 -0 -0 -0 -0 -0 -0 -0 -0 -0 -0 -0 -0 -0 -0 -0 -0 -0 -0 -0 -0 -0 -0 -0 -0 -0 -0 -0 -0 -0 -0 -0 -0 -0 -0 -0 -0 -0 -0
-0 -0 -0 -0 -0 -0 -0 -0 -0 -0 -0 -0 -0 -0 -0 -0 -0 -0 -0 -0 -0 -0 -0 -0 -0 -0 -0 -0 -0 -0 -0 -0 -0 -0 -0 -0 -0 -0 -0 -0 -0 -0 -0 -0 -0 -0 -0
-0 -0 -0 -0 -0 -0 -0 -0 -0 -0 -0 -0 -0 -0 -0 -0 -0 -0 -0 -0 -0 -0 -0 -0 -0 -0 -0 -0 -0 -0 -0 -0 -0 -0 -0 -0 -0 -0 -0 -0 -0 -0 -0 -0 -0 -0 -0
-0 -0 -0 -0 -0 -0 -0 -0 -0 -0 -0 -0 -0 -0 -0 -0 -0 -0 -0 -0 -0 -0 -0 -0 -0 -0 -0 -0 -0 -0 -0 -0 -0 -0 -0 -0 -0 -0 -0 -0 -0 -0 -0 -0 -0 -0 -0
-0 -0 -0 -0 -0 -0 -0 -0 -0 -0 -0 -0 -0 -0 -0 -0 -0 -0 -0 -0 -0 -0 -0 -0 -0 -0 -0 -0 -0 -0 -0 -0 -0 -0 -0 -0 -0 -0 -0 -0 -0 -0 -0 -0 -0 -0 -0
-0 -0 -0 -0 -0 -0 -0 -0 -0 -0 -0 -0 -0 -0 -0 -0 -0 -0 -0 -0 -0 -0 -0 -0 -0 -0 -0 -0 -0 -0 -0 -0 -0 -0 -0 -0 -0 -0 -0 -0 -0 -0 -0 -0 -0 -0 -0
-0 -0 -0 -0 -0 -0 -0 -0 -0 -0 -0 -0 -0 -0 -0 -0 -0 -0 -0 -0 -0 -0 -0 -0 -0 -0 -0 -0 -0 -0 -0 -0 -0 -0 -0 -0 -0 -0 -0 -0 -0 -0 -0 -0 -0 -0 -0
-21 -17 -0 -0 -0 -0 -0 -0 -0 -0 -0 -0 -0 -0 -0 -0 -0 -0 -0 -0 -0 -0 -0 -0 -0 -0 -0 -0 -0 -0 -0 -0 -0 -0 -0 -0 -0 -0 -0 -0 -0 -0 -0 -0 -0 -0 -0
-1 -0 -0 -0 -0 -0 -0 -0 -0 -0 -0 -0 -0 -0 -0 -0 -0 -0 -0 -0 -0 -0 -0 -0 -0 -0 -0 -0 -0 -0 -0 -0 -0 -0 -0 -0 -0 -0 -0 -0 -0 -0 -0 -0 -0 -0 -0
-10 -4 -1 -0 -0 -0 -0 -0 -0 -0 -0 -0 -0 -0 -0 -0 -0 -0 -0 -0 -0 -0 -0 -0 -0 -0 -0 -0 -0 -0 -0 -0 -0 -0 -0 -0 -0 -0 -0 -0 -0 -0 -0 -0 -0 -0 -0
-2 -1 -1 -0 -0 -0 -0 -0 -0 -0 -0 -0 -0 -0 -0 -0 -0 -0 -0 -0 -0 -0 -0 -0 -0 -0 -0 -0 -0 -0 -0 -0 -0 -0 -0 -0 -0 -0 -0 -0 -0 -0 -0 -0 -0 -0 -0
-8 -0 -0 -1 -0 -6 -0 -0 -0 -0 -0 -0 -0 -0 -0 -0 -0 -0 -0 -0 -0 -0 -0 -0 -0 -0 -0 -0 -0 -0 -0 -0 -0 -0 -0 -0 -0 -0 -0 -0 -0 -0 -0 -0 -0 -0 -0
-0 -1 -1 -0 -0 -0 -0 -2 -0 -0 -0 -0 -0 -0 -0 -0 -0 -0 -0 -0 -0 -0 -0 -0 -0 -0 -0 -0 -0 -0 -0 -0 -0 -0 -0 -0 -0 -0 -0 -0 -0 -0 -0 -0 -0 -0 -0
-0 -0 -1 -0 -0 -0 -0 -0 -0 -0 -0 -0 -0 -0 -0 -0 -0 -0 -0 -0 -0 -0 -0 -0 -0 -0 -0 -0 -0 -0 -0 -0 -0 -0 -0 -0 -0 -0 -0 -0 -0 -0 -0 -0 -0 -0 -0
-0 -0 -1 -1 -0 -0 -0 -0 -0 -1 -0 -0 -0 -0 -0 -0 -0 -0 -0 -0 -0 -0 -0 -0 -0 -0 -0 -0 -0 -0 -0 -0 -0 -0 -0 -0 -0 -0 -0 -0 -0 -0 -0 -0 -0 -0 -0
-1 -0 -0 -0 -1 -0 -0 -0 -0 -1 -0 -0 -0 -0 -0 -0 -0 -0 -0 -0 -0 -0 -0 -0 -0 -0 -0 -0 -0 -0 -0 -0 -0 -0 -0 -0 -0 -0 -0 -0 -0 -0 -0 -0 -0 -0 -0
-0 -0 -0 -0 -0 -0 -0 -0 -0 -0 -0 -0 -0 -0 -0 -0 -0 -0 -0 -0 -0 -0 -0 -0 -0 -0 -0 -0 -0 -0 -0 -0 -0 -0 -0 -0 -0 -0 -0 -0 -0 -0 -0 -0 -0 -0 -0
-0 -0 -0 -0 -0 -0 -0 -0 -0 -0 -0 -0 -0 -0 -0 -0 -0 -0 -0 -0 -0 -0 -0 -0 -0 -0 -0 -0 -0 -0 -0 -0 -0 -0 -0 -0 -0 -0 -0 -0 -0 -0 -0 -0 -0 -0 -0
-0 -0 -0 -0 -0 -0 -0 -0 -0 -0 -0 -0 -0 -0 -0 -0 -0 -0 -0 -0 -0 -0 -0 -0 -0 -0 -0 -0 -0 -0 -0 -0 -0 -0 -0 -0 -0 -0 -0 -0 -0 -0 -0 -0 -0 -0 -0
-0 -0 -0 -0 -0 -0 -0 -0 -0 -0 -0 -0 -0 -0 -0 -0 -0 -0 -0 -0 -0 -0 -0 -0 -0 -0 -0 -0 -0 -0 -0 -0 -0 -0 -0 -0 -0 -0 -0 -0 -0 -0 -0 -0 -0 -0 -0
-0 -0 -0 -0 -0 -0 -0 -0 -0 -0 -0 -0 -0 -0 -0 -0 -0 -0 -0 -0 -0 -0 -0 -0 -0 -0 -0 -0 -0 -0 -0 -0 -0 -0 -0 -0 -0 -0 -0 -0 -0 -0 -0 -0 -0 -0 -0
-0 -0 -0 -0 -0 -0 -0 -0 -0 -0 -0 -0 -0 -0 -0 -0 -0 -0 -0 -0 -0 -0 -0 -0 -0 -0 -0 -0 -0 -0 -0 -0 -0 -0 -0 -0 -0 -0 -0 -0 -0 -0 -0 -0 -0 -0 -0
-0 -0 -0 -0 -0 -0 -0 -0 -0 -0 -0 -0 -0 -0 -0 -0 -0 -0 -0 -0 -0 -0 -0 -0 -0 -0 -0 -0 -0 -0 -0 -0 -0 -0 -0 -0 -0 -0 -0 -0 -0 -0 -0 -0 -0 -0 -0
-0 -0 -0 -0 -0 -0 -0 -0 -0 -0 -0 -0 -0 -0 -0 -0 -0 -0 -0 -0 -0 -0 -0 -0 -0 -0 -0 -0 -0 -0 -0 -0 -0 -0 -0 -0 -0 -0 -0 -0 -0 -0 -0 -0 -0 -0 -0
-0 -0 -0 -0 -0 -0 -0 -0 -0 -0 -0 -0 -0 -0 -0 -0 -0 -0 -0 -0 -0 -0 -0 -0 -0 -0 -0 -0 -0 -0 -0 -0 -0 -0 -0 -0 -0 -0 -0 -0 -0 -0 -0 -0 -0 -0 -0
-0 -0 -0 -0 -0 -0 -0 -0 -0 -0 -0 -0 -0 -0 -0 -0 -0 -0 -0 -0 -0 -0 -0 -0 -0 -0 -0 -0 -0 -0 -0 -0 -0 -0 -0 -0 -0 -0 -0 -0 -0 -0 -0 -0 -0 -0 -0
-0 -0 -0 -0 -0 -0 -0 -0 -0 -0 -0 -0 -0 -0 -0 -0 -0 -0 -0 -0 -0 -0 -0 -0 -0 -0 -0 -0 -0 -0 -0 -0 -0 -0 -0 -0 -0 -0 -0 -0 -0 -0 -0 -0 -0 -0 -0
-0 -0 -0 -0 -0 -0 -0 -0 -0 -0 -0 -0 -0 -0 -0 -0 -0 -0 -0 -0 -0 -0 -0 -0 -0 -0 -0 -0 -0 -0 -0 -0 -0 -0 -0 -0 -0 -0 -0 -0 -0 -0 -0 -0 -0 -0 -0
-0 -0 -0 -0 -0 -0 -0 -0 -0 -0 -0 -0 -0 -0 -0 -0 -0 -0 -0 -0 -0 -0 -0 -0 -0 -0 -0 -0 -0 -0 -0 -0 -0 -0 -0 -0 -0 -0 -0 -0 -0 -0 -0 -0 -0 -0 -0
Wind_Speed
13 20 22 23 24 24 24 25 25 25 25 25 24 23 22 22 21 21 21 22 21 22 21 21 21 19 15 16 17 18 18 16 15 14 13 13 13 15 16 18 19 19 17 18 17 17 17
11 16 19 21 23 24 24 24 25 25 26 25 25 24 24 23 22 22 23 23 23 22 22 21 20 17 14 16 16 17 16 15 15 12 14 13 14 16 18 18 19 18 19 18 16 16 16
7 11 18 19 19 22 24 25 25 25 25 26 26 25 25 24 23 23 24 24 24 23 22 19 18 15 15 16 16 16 15 15 15 17 18 18 17 16 17 19 18 19 18 17 15 14 15
6 7 11 17 20 21 22 24 25 25 25 26 26 26 25 25 25 24 25 25 24 23 19 17 15 15 16 16 16 15 15 14 16 18 20 20 19 19 18 19 18 16 17 18 14 13 13
4 6 7 10 17 20 22 22 24 25 26 26 26 26 26 25 25 25 26 26 24 19 15 16 14 15 16 15 16 17 16 15 15 17 19 19 18 19 18 16 16 16 17 17 17 10 13
5 5 6 8 10 17 21 22 23 25 25 26 26 27 26 26 25 26 26 25 18 14 13 14 15 16 17 15 15 15 16 15 14 14 16 17 18 17 16 15 18 16 17 17 16 12 9
10 8 7 6 8 10 18 21 23 24 25 26 26 27 27 26 25 25 23 17 15 15 13 11 16 16 14 15 16 16 16 14 14 15 13 16 14 12 14 14 15 17 17 17 15 13 10
16 13 10 7 6 9 12 20 23 24 25 26 26 27 27 27 26 23 17 16 15 15 18 15 16 17 15 16 17 17 16 13 13 13 14 15 13 13 13 14 16 16 17 17 15 14 11
20 18 18 11 5 6 10 18 21 24 25 26 27 27 27 27 24 15 14 16 19 16 19 19 17 17 16 15 17 17 16 13 13 13 13 12 14 14 13 15 17 18 17 18 14 14 11
22 21 19 14 10 5 9 15 21 23 24 25 26 26 27 27 14 17 13 18 19 17 20 19 17 17 15 14 17 17 16 13 14 12 14 15 14 13 13 14 17 18 17 18 16 15 13
22 23 22 20 16 8 8 15 20 24 25 26 26 26 25 20 18 13 16 18 17 16 21 15 14 15 13 14 15 16 16 14 11 12 13 14 15 13 12 14 16 17 17 18 16 15 15
22 23 21 22 20 17 10 13 20 24 26 27 26 26 25 17 17 15 20 15 13 19 22 15 14 14 13 15 16 16 15 14 12 14 16 14 15 15 14 14 16 17 19 20 18 16 16
20 21 20 21 20 19 18 13 18 23 25 27 28 27 22 16 11 17 17 13 17 21 18 18 16 13 14 15 17 17 16 14 12 13 13 15 16 14 14 14 15 18 20 21 22 18 15
20 19 20 20 21 21 20 20 18 23 25 27 29 27 13 12 14 16 13 12 21 21 22 17 14 13 15 13 18 16 17 19 17 14 15 15 18 13 15 15 15 17 20 21 23 19 10
19 19 18 19 20 21 22 22 21 22 24 27 27 19 15 13 13 12 8 11 20 21 19 19 17 18 17 17 18 16 18 20 17 9 13 14 17 14 15 14 15 16 18 18 19 19 15
17 19 19 18 19 20 21 23 22 22 22 24 22 18 13 15 7 7 7 9 18 18 18 19 23 19 18 17 18 18 18 17 19 17 15 12 19 16 14 13 15 14 16 18 19 20 19
17 18 19 19 19 20 20 21 22 22 22 23 15 11 12 13 10 3 6 10 16 18 17 20 23 20 19 18 19 20 20 19 16 15 15 13 14 18 16 11 12 14 14 17 18 17 17
18 19 19 20 21 20 20 21 21 20 21 16 13 9 14 10 6 8 7 12 17 19 19 20 21 23 21 19 20 22 22 20 16 14 16 14 14 20 18 14 12 11 11 13 15 15 15
17 18 18 19 20 20 20 21 21 20 17 11 9 10 14 10 9 8 10 15 19 19 24 24 25 23 22 22 23 22 21 20 18 17 16 13 16 21 20 17 14 9 9 10 13 14 10
18 17 18 16 17 18 19 17 20 20 16 10 10 12 13 12 13 10 8 14 17 21 24 23 26 24 25 26 26 25 22 20 20 19 18 17 17 19 25 21 15 11 7 6 8 10 11
17 17 18 16 16 17 19 19 18 20 16 9 9 11 12 12 13 10 9 13 15 19 22 22 28 29 28 31 28 30 26 24 22 20 18 18 23 19 26 22 16 9 3 2 2 3 5
19 17 18 17 16 18 19 19 18 19 14 9 11 12 14 15 14 10 11 12 15 18 19 24 28 26 27 33 32 33 28 28 27 22 22 21 24 22 28 24 21 13 4 5 6 4 7
19 19 18 18 17 18 19 20 18 17 14 9 12 14 13 16 16 12 11 13 16 19 20 25 27 28 29 32 27 27 26 26 24 24 22 22 21 23 28 25 28 35 5 6 2 3 4
20 18 18 17 19 19 19 19 19 16 15 10 11 13 13 17 16 13 14 12 16 19 22 22 22 24 24 12 14 18 21 23 24 24 22 23 21 22 27 26 32 21 17 10 3 2 9
19 18 18 19 20 19 19 18 17 16 16 13 12 12 14 18 19 17 13 14 16 18 21 25 25 22 13 20 25 28 30 31 30 28 27 24 22 24 26 25 34 30 20 14 8 10 9
20 19 19 19 20 19 17 16 16 17 17 15 14 14 18 18 19 19 17 18 19 22 24 22 22 19 21 25 28 36 36 32 32 31 26 25 24 26 23 26 28 20 18 13 14 18 9
22 20 19 18 18 18 15 15 16 17 18 17 16 17 19 20 22 16 17 18 17 18 22 21 22 22 23 29 35 37 41 30 37 33 29 29 30 31 29 30 32 25 16 11 18 18 11
24 22 21 19 18 18 17 16 17 17 18 17 18 20 21 21 23 21 20 18 18 18 21 19 21 25 26 31 32 33 38 38 37 33 31 31 26 28 26 28 34 11 10 14 17 15 13
27 24 22 20 19 18 18 18 18 18 19 17 19 18 21 23 24 23 25 20 18 19 21 20 24 22 23 26 31 29 35 33 37 44 32 39 31 29 25 24 21 6 15 10 17 18 15
Wind_Direction
54 11 349 342 338 337 337 336 333 331 330 331 331 327 321 317 298 297 299 297 286 283 277 282 289 307 340 311 284 276 283 277 330 96 118 91 67 50 46 45 39 37 48 44 51 47 41
63 30 18 4 347 339 337 334 333 331 329 327 327 324 318 312 311 292 293 292 283 282 277 285 297 321 331 302 295 284 296 306 304 12 73 59 61 56 42 38 36 50 53 55 50 46 44
103 49 12 6 11 359 340 333 331 329 329 326 323 322 318 311 306 302 290 286 278 279 283 291 306 331 314 301 294 285 295 314 313 359 28 39 62 45 55 46 60 60 51 50 51 48 36
99 73 40 10 359 0 358 342 330 324 325 326 323 317 315 312 304 300 292 284 277 271 296 311 319 319 304 304 297 296 281 319 342 14 30 41 40 43 47 67 61 56 54 37 47 50 47
98 73 57 37 6 355 350 351 339 328 322 320 321 317 312 309 305 299 292 282 278 301 318 307 317 315 305 305 293 289 290 307 337 11 34 35 36 50 63 63 58 55 41 37 35 64 46
54 51 51 42 32 3 349 345 345 333 324 318 317 316 309 305 303 297 293 287 316 324 331 320 310 307 297 301 301 298 288 307 352 20 31 23 32 52 66 67 44 48 39 37 35 59 68
19 31 35 37 31 23 353 345 340 337 328 321 315 312 310 303 299 296 305 322 315 318 327 332 310 299 317 300 298 299 294 319 353 2 39 25 46 72 76 73 57 47 41 35 43 60 65
353 357 6 18 26 15 9 341 333 332 329 321 316 312 307 301 293 295 319 313 320 318 300 313 305 295 303 295 294 289 296 341 4 20 26 29 55 73 79 69 52 47 39 38 48 55 68
346 347 343 359 13 12 4 342 334 327 328 324 316 310 306 299 296 326 320 309 309 320 301 299 295 297 298 299 292 287 296 334 355 16 26 52 41 64 74 61 47 43 42 39 47 55 68
342 342 349 355 359 9 358 347 331 326 324 325 319 312 307 300 332 313 334 304 306 312 296 295 294 295 298 296 292 287 295 322 338 19 19 27 36 61 75 61 50 42 51 43 49 55 58
343 340 341 346 354 358 354 338 329 320 316 316 322 311 309 322 314 321 310 308 312 311 289 304 299 300 299 290 291 289 292 310 350 6 15 23 18 50 73 61 57 51 51 46 53 58 53
338 336 342 343 345 345 351 339 324 314 312 308 311 310 306 322 313 315 301 311 320 290 284 301 307 299 293 285 283 285 293 310 339 341 344 9 13 20 61 67 61 58 50 46 56 58 56
338 336 342 344 346 340 337 338 323 313 311 304 304 304 312 321 332 306 311 309 288 279 297 291 297 302 294 285 278 279 287 302 323 343 357 357 347 14 48 55 60 51 45 45 48 55 59
335 336 343 347 346 342 337 324 322 311 307 305 296 302 333 324 311 306 305 299 277 286 276 297 297 302 297 290 277 280 285 286 295 320 337 343 325 8 33 47 53 50 50 49 42 47 57
333 334 340 345 345 343 335 326 316 308 307 305 304 317 320 324 306 303 311 287 281 283 287 278 286 289 287 285 279 278 280 283 294 324 330 346 321 351 10 45 57 55 50 59 54 55 59
333 333 333 337 340 340 337 327 316 309 309 308 312 320 323 318 329 317 298 284 284 287 292 281 271 280 285 282 275 274 279 288 285 293 312 341 315 331 357 32 39 55 65 50 52 50 50
323 328 329 333 330 333 336 334 319 312 307 308 322 329 320 311 314 322 252 281 283 285 287 277 273 277 280 282 274 273 278 285 288 295 302 325 330 316 335 20 42 47 51 52 55 57 54
314 319 325 325 325 327 328 328 324 318 307 316 319 315 312 309 299 304 268 287 284 274 281 280 278 275 276 279 276 272 274 278 290 293 298 309 328 305 319 346 17 41 53 59 55 57 57
308 315 318 321 323 326 324 323 320 317 320 330 321 314 311 302 282 277 294 283 283 280 270 272 271 274 281 275 272 273 278 281 282 287 296 306 311 294 302 329 351 41 56 56 52 51 57
300 310 313 319 324 325 323 323 316 317 314 326 321 307 303 296 303 293 270 283 279 279 274 275 272 272 271 272 272 272 275 283 281 282 289 295 300 297 285 309 341 4 42 70 60 51 51
293 300 310 313 321 322 318 317 315 309 312 319 313 306 307 303 278 283 290 301 278 275 274 274 269 266 265 266 271 267 271 276 281 282 286 290 288 299 291 304 322 341 6 111 166 79 56
287 295 301 306 312 314 312 311 314 307 305 308 299 301 304 303 304 273 275 289 285 283 275 271 267 268 266 262 267 269 270 269 271 277 276 285 286 296 290 301 310 322 238 211 203 195 220
278 287 292 297 304 310 312 308 308 308 301 305 298 301 302 297 291 290 292 273 282 282 285 274 270 268 268 268 273 275 272 274 272 274 275 279 285 292 288 297 298 284 273 194 196 158 155
272 280 286 291 295 300 305 308 307 304 301 300 299 296 293 285 287 279 299 296 294 281 277 279 278 271 272 287 288 285 280 275 271 272 275 276 282 288 288 296 281 310 328 352 145 112 185
263 272 280 286 289 294 297 307 307 305 300 296 294 289 287 284 281 284 289 294 296 295 287 276 274 278 271 274 271 266 266 267 265 268 267 272 276 282 284 289 284 294 313 318 334 349 183
254 263 272 280 284 289 292 302 303 303 296 295 289 286 284 285 279 281 287 288 287 285 284 283 281 275 272 268 266 258 258 262 262 263 267 268 272 273 282 285 285 305 319 336 335 331 2
247 253 263 271 278 286 285 295 301 301 296 291 289 282 277 278 281 286 286 286 292 289 281 282 275 269 271 262 261 260 257 263 258 259 260 260 264 264 271 277 281 293 311 330 318 327 5
240 246 254 262 268 275 278 286 294 299 302 288 286 281 275 277 279 279 283 288 293 287 279 281 277 273 266 261 262 263 260 257 259 261 260 259 260 264 267 274 277 303 309 304 316 330 344
236 241 246 254 260 267 271 278 286 290 296 294 283 286 280 277 284 281 278 284 287 289 289 277 277 279 268 265 262 267 262 262 258 255 260 256 259 264 261 276 288 295 301 310 316 321 334